Location: Unspecified
(0.0000°N, 0.0000°E)
Time: 20:53:49
(UTC+00:00)

ARIANE 2 DEB - Pass Details

Date: 23 December 2025
Orbit: 910 x 35590 km, 6.7° (Epoch: 29 August)

Event Time Altitude Azimuth Distance (km) Brightness Sun altitude
Rises 16:33:16 0° 268° (W) 12,850 ? 19.7°
Reaches altitude 10° 16:41:30 10° 267° (W) 13,865 ? 17.8°
Enters shadow 02:00:54 19° 269° (W) 10,220 ? -52.4°
Exits shadow 02:29:40 19° 71° (ENE) 2,631 ? -46.7°
Drops below altitude 10° 02:30:49 10° 74° (ENE) 3,042 ? -46.5°
Sets 02:32:33 0° 77° (ENE) 3,741 ? -46.1°
